510  
FPUS83 KFGF 180231  
OPUFGF  
PRAIRIE TO PINES WEATHER ROUNDUP  
NATIONAL WEATHER SERVICE EASTERN NORTH DAKOTA/GRAND FORKS ND  
900 PM CDT WED AUG 17 2022  
 
**SATELLITE DATA USED TO AUGMENT SKY COVER AT AUTOMATED STATIONS**  
***** WEATHER ACROSS EASTERN NORTH DAKOTA *****  
 
CITY SKY/WX TMP DP RH WIND PRES REMARKS  
GRAND FORKS FAIR 79 66 64 E3 29.94S  
GRND FORKS AFB MOCLDY 75 65 70 CALM 29.95S  
GRND FORKS NWS N/A 74 66 75 MISG 29.90S  
BUXTON NOT AVBL  
DEVILS LAKE FAIR 76 63 64 W5 29.99F  
FARGO FAIR 75 66 73 CALM 29.94F  
WAHPETON ARPT FAIR 73 64 73 S6 29.95S  

 
 
***** WEATHER ACROSS CENTRAL AND WESTERN NORTH DAKOTA *****  
 
CITY SKY/WX TMP DP RH WIND PRES REMARKS  
JAMESTOWN FAIR 72 65 78 E5 29.96F  
BISMARCK FAIR 75 60 59 NE15 29.97S  
MINOT MOCLDY 74 66 76 NW3 29.97F  
MINOT AFB PTCLDY 74 65 73 E3 29.95F  
GARRISON N/A 77 63 61 NE5 29.97F  
WILLISTON NOT AVBL  
DICKINSON FAIR 76 55 48 SW8 29.99S  
HETTINGER FAIR 71 55 56 SW5 30.03S  

 
 
***** OTHER OBSERVATIONS NORTHEAST NORTH DAKOTA *****  
 
CITY SKY/WX TMP DP RH WIND PRES REMARKS  
WALHALLA FAIR 73 73 100 CALM 29.96R  
LANGDON FAIR 73 73 100 CALM 30.00R  
CAVALIER FAIR 73 72 94 CALM 29.95S  
GRAFTON FAIR 73 64 73 CALM 29.96S  
CANDO MOCLDY 73 28 19 CALM 30.00S  
FORT TOTTEN N/A 71 65 81 CALM 29.95S  
ROLLA FAIR 70 70 100 N3 30.01S FOG  
RUGBY NOT AVBL  
***** THE ABOVE OBSERVATIONS ARE NON NWS ARE NOT QUALITY  
CONTROLLED AND MAY MIS-REPORT RAIN FOR SNOW...  

 
 
***** OTHER OBSERVATIONS SOUTHEAST NORTH DAKOTA *****  
 
CITY SKY/WX TMP DP RH WIND PRES REMARKS  
COOPERSTOWN FAIR 72 72 100 SE3 29.98S  
VALLEY CITY FAIR 75 66 73 E5 29.98R  
OAKES FAIR 72 72 100 S7 29.97S  
GWINNER CLEAR 72 72 100 SW6 29.96F  
SHEYENNE NWR N/A 74 67 78 CALM 29.95S  
BUFFALO NOT AVBL  
WYNDMERE NOT AVBL  
***** THE ABOVE OBSERVATIONS ARE NON NWS ARE NOT QUALITY  
CONTROLLED AND MAY MIS-REPORT RAIN FOR SNOW...  

 
 
***** WEATHER ACROSS NORTHERN MINNESOTA *****  
 
CITY SKY/WX TMP DP RH WIND PRES REMARKS  
FLAG ISLAND NOT AVBL  
WARROAD FAIR 72 68 88 SW3 29.98R  
ROSEAU N/A 72 70 94 CALM 29.98R  
HALLOCK FAIR 73 70 88 CALM 29.95S  
THF RVR FALLS FAIR 73 70 90 CALM 29.98S  
HALSTAD NOT AVBL  
FOSSTON FAIR 68 66 94 CALM 29.99S  
BAUDETTE FAIR 73 65 75 CALM 29.98S  
WASKISH FAIR 70 66 88 CALM 29.99R  
CROOKSTON FAIR 75 64 69 NE3 29.96S  

 
***** WEATHER ACROSS CENTRAL AND WEST MINNESOTA *****  
 
CITY SKY/WX TMP DP RH WIND PRES REMARKS  
BEMIDJI CLOUDY 74 65 73 CALM 29.99S  
PARK RAPIDS FAIR 75 64 68 SE6 30.00S  
WADENA FAIR 72 64 78 SE6 30.00S  
DETROIT LAKES FAIR 73 66 78 CALM 29.98S  
MOORHEAD FAIR 75 66 73 CALM 29.95F  
FERGUS FALLS FAIR 73 64 73 SE6 29.97S  
ELBOW LAKE FAIR 69 66 89 S8 29.99F  
MORRIS MN FAIR 70 63 78 S7 30.01F  
STAPLES FAIR 73 64 73 S6 30.02S  
WHEATON N/A 75 63 64 S8 29.99S  

 
***** WEATHER ELSEWHERE ACROSS MINNESOTA *****  
 
CITY SKY/WX TMP DP RH WIND PRES REMARKS  
DULUTH FAIR 63 58 83 W6 30.03F  
INTRNTL FALLS FAIR 66 62 87 CALM 29.98S  
ELY N/A 64 61 88 CALM 30.02F  
CLOQUET FAIR 61 59 94 E3 30.03S  
BRAINERD FAIR 73 64 73 S6 30.02F  
HIBBING CLOUDY 65 63 93 SW5 30.03F  
ALEXANDRIA FAIR 73 65 75 S8 30.03F  
SAINT CLOUD FAIR 69 64 84 E8 30.05R  
MINNEAPOLIS LGT RAIN 72 64 76 NE3 30.06R  

 
 
***** WEATHER ACROSS SOUTH DAKOTA *****  
 
CITY SKY/WX TMP DP RH WIND PRES REMARKS  
SIOUX FALLS FAIR 76 63 64 S7 30.08R  
BROOKINGS FAIR 72 64 76 S7 30.07S  
WATERTOWN FAIR 71 63 75 S8 30.03F  
HURON FAIR 77 62 59 S8 30.02F  
SISSETON N/A 79 61 53 SW8 29.97F  
ABERDEEN FAIR 76 65 68 S9 29.97F  
MITCHELL FAIR 76 62 62 S7 30.05S  
PIERRE FAIR 81 55 40 S9 29.98F  
MOBRIDGE MOCLDY 83 54 36 NW8 29.97R  
RAPID CITY FAIR 72 53 51 SW7 30.12R  

 
 
***** SOME WEATHER IN NEARBY STATES *****  
 
CITY SKY/WX TMP DP RH WIND PRES REMARKS  
GLASGOW MT FAIR 88 48 25 N20G25 30.04R  
GREAT FALLS MT FAIR 82 43 25 NE7 30.17S  
CHEYENNE WY FAIR 75 46 35 S10 30.26R  
SCOTTSBLUFF NE FAIR 75 54 47 E8 30.12S  
OMAHA NE FAIR 73 62 68 E6 30.09S  
DES MOINES IA FAIR 76 57 51 E3 30.10R  
DAVENPORT IA FAIR 66 61 84 N3 30.10R  
CHICAGO IL FAIR 71 58 63 NE5 30.08R  
EAU CLAIRE WI FAIR 71 62 73 CALM 30.06S  
LA CROSSE WI FAIR 71 58 63 SE6 30.07S  

 
 
***** SOME NATIONAL WEATHER *****  
 
CITY SKY/WX TMP DP RH WIND PRES REMARKS  
LA GUARDIA NY LGT RAIN 69 59 70 VRB7 29.95F  
RALEIGH NC MOCLDY 72 62 71 SE3 29.99R  
ATLANTA GA MOCLDY 76 68 76 S3 29.99R  
NEW ORLEANS LA FAIR 86 77 74 S5 29.93R HX 97  
OKLAHOMA CITY CLOUDY 75 66 73 NE12 30.05S  
ALBUQUERQUE NM MOCLDY 79 55 43 S13 30.21R  
SALT LAKE CITY FAIR 95 47 19 NW9 30.03R HX 91  
LOS ANGELES CA FAIR 69 60 73 W12 29.87R  
BOISE ID FAIR 97 44 16 W7 29.93F HX 93  
SEATTLE WA FAIR 86 56 35 N8 29.91S  

 
 
*** WEATHER ACROSS MANITOBA...SASKATCHEWAN AND ONTARIO ***  
***ONTARIO***  
 
CITY SKY/WX TMP DP RH WIND PRES REMARKS  
GERALDTON NOT AVBL  
THUNDER BAY MOCLDY 63 63 100 CALM 29.98R  
SIOUX LOOKOUT MOCLDY 68 66 94 NW5 29.96S  
TORONTO PTCLDY 72 61 68 CALM 30.01F  
BIG TROUT LK LGT RAIN 70 63 78 NW6 29.91S  
PICKLE LAKE CLEAR 66 63 88 E3 29.93F  
DRYDEN CLEAR 72 66 83 W7 29.97S  
KENORA MOCLDY 73 64 73 W5 29.98S  

 
*** MANITOBA***  
 
CITY SKY/WX TMP DP RH WIND PRES REMARKS  
BRANDON MOCLDY 73 68 83 N3 29.98F  
DAUPHIN CLOUDY 70 66 88 NW6 29.95S  
ISLAND LAKE CLOUDY 72 63 73 W16G26 29.91R  
PILOT MOUND N/A 73 68 83 N3 N/A  
THE PAS CLEAR 73 61 64 W6 29.96S  
THOMPSON MOCLDY 72 63 73 W5 29.89R  
WINNIPEG CLOUDY 73 68 83 CALM 29.94F  
LYNN LAKE CLEAR 70 57 64 NW6 29.95R  
CHURCHILL PTCLDY 66 61 82 NE7 29.85R  
GILLAM LGT RAIN 70 63 78 SW3 29.85S  

 
***SASKATCHEWAN***  
 
CITY SKY/WX TMP DP RH WIND PRES REMARKS  
ESTEVAN TSTM 70 64 83 N20G26 30.04R  
KINDERSLEY PTCLDY 73 52 46 N8 30.14  
LLOYDMINSTER MOCLDY 73 59 60 NW5 30.15S  
PRINCE ALBERT PTCLDY 70 61 73 NW7 30.07S  
REGINA PTCLDY 68 61 77 VRB2 30.04S  
YORKTON CLEAR 68 64 88 W5 30.02R  
 
CLICK HERE TO GO TO PREVIOUS BULLETINS.

The Nexlab ND Page
The Nexlab MN Page Main Text Page